Total_Precipitation_Accumulation
-0.22 -0.07 -0.05 -0.02 -0.01 -0.01 0.00 0.00 -0.03 -0.03 -0.01 -0.05 -0.04 -0.04 0.08 -0.09 -0.09 -0.10 -0.12 -0.09 -0.09 -0.11 -0.03 0.01 0.04 0.04 0.00 -0.05 0.05 0.05 0.05 0.06 -0.09 -0.09 -0.22 -0.12 -0.12 -0.17 -0.01 0.05 0.05 0.10 -0.17 -0.22 -0.20 -0.20 -0.19 0.01 0.05 0.05 -0.03 -0.07 -0.09 -0.09 -0.10 -0.10 -0.10 -0.06 -0.02 0.03 0.03 0.07 -0.10 -0.04 0.06 0.06 0.16 0.14 0.08 0.08 0.08 0.13 0.13 0.13 0.17 0.22 0.22 0.07 0.05 0.00 0.00 0.00 0.00 0.00 0.00 0.00 0.01 0.00 0.00 0.00 -0.02 0.01 0.03 0.03 0.03 -0.07 -0.07 0.00 0.00 -0.03 -0.03 -0.04 -0.02
-0.11 -0.03 -0.01 -0.01 -0.00 -0.00 0.00 0.00 -0.02 -0.02 -0.03 -0.03 -0.07 -0.07 -0.01 -0.11 -0.11 -0.15 -0.13 -0.15 -0.15 -0.13 -0.02 0.06 -0.13 -0.13 -0.19 0.01 0.00 0.00 0.02 -0.02 -0.06 -0.06 -0.14 -0.06 -0.06 -0.11 -0.06 -0.01 -0.01 -0.05 -0.15 -0.22 -0.26 -0.26 -0.26 -0.07 -0.02 -0.02 -0.11 -0.07 -0.08 -0.08 -0.11 -0.09 -0.09 -0.03 -0.00 -0.05 -0.05 -0.04 -0.12 -0.05 0.04 0.04 0.06 0.15 0.07 0.07 -0.02 0.15 0.15 0.15 0.16 0.14 0.14 0.09 0.11 0.10 0.10 0.00 0.00 0.00 0.00 0.00 0.01 0.00 0.00 0.00 0.00 0.08 0.01 0.01 0.03 0.05 0.05 -0.08 -0.03 0.03 0.03 -0.04 -0.04
-0.04 -0.01 -0.00 -0.00 -0.02 -0.02 0.00 0.00 -0.01 -0.01 -0.04 -0.05 -0.04 -0.04 -0.03 -0.03 -0.03 -0.13 -0.16 -0.12 -0.12 -0.21 -0.21 -0.15 -0.11 -0.11 -0.12 -0.01 -0.08 -0.08 -0.02 0.01 -0.03 -0.03 -0.06 -0.13 -0.13 -0.14 -0.17 -0.26 -0.26 -0.12 -0.29 -0.22 -0.12 -0.12 -0.06 -0.11 -0.00 -0.00 -0.05 -0.13 -0.19 -0.19 -0.04 -0.09 -0.09 -0.07 -0.01 -0.03 -0.03 -0.03 -0.09 -0.04 -0.08 -0.08 0.07 0.01 0.03 0.03 0.03 0.22 0.19 0.19 0.06 0.16 0.16 0.19 0.13 0.10 0.10 0.03 0.02 0.09 0.02 0.02 0.00 0.00 0.00 0.00 0.00 0.03 0.06 0.06 0.04 0.03 0.03 0.01 -0.13 -0.08 -0.08 0.01 -0.02
-0.11 -0.05 -0.03 -0.02 -0.07 -0.07 -0.02 -0.01 -0.02 -0.02 -0.04 -0.04 -0.05 -0.05 -0.04 -0.03 -0.03 -0.04 -0.03 -0.08 -0.08 -0.11 -0.09 -0.09 -0.12 -0.12 -0.11 -0.07 -0.18 -0.18 -0.06 0.04 0.01 0.01 -0.08 -0.09 -0.09 -0.03 -0.16 -0.20 -0.20 -0.24 -0.20 -0.20 -0.21 -0.21 -0.05 -0.04 -0.01 -0.01 0.04 -0.12 -0.21 -0.21 -0.17 -0.18 -0.18 -0.07 -0.06 0.01 0.01 -0.07 -0.13 -0.06 -0.05 -0.05 -0.20 0.10 0.18 0.18 0.08 -0.21 -0.12 -0.12 -0.10 0.16 0.16 0.26 0.25 0.24 0.24 0.07 0.12 0.15 0.19 0.19 0.04 0.03 0.00 0.00 0.00 0.00 0.03 0.03 0.01 -0.01 -0.01 -0.00 -0.13 -0.12 -0.12 -0.05 -0.01
-0.16 -0.08 -0.06 -0.05 -0.03 -0.03 -0.03 -0.02 -0.02 -0.02 -0.04 -0.05 -0.02 -0.02 -0.04 -0.03 -0.03 -0.03 -0.07 -0.08 -0.08 -0.16 -0.12 -0.08 -0.05 -0.05 -0.16 -0.12 -0.15 -0.15 -0.11 -0.05 -0.01 -0.01 0.02 -0.02 -0.02 0.05 -0.17 -0.21 -0.21 -0.37 -0.41 -0.36 -0.29 -0.29 -0.13 -0.11 -0.00 -0.00 0.01 0.03 -0.21 -0.21 -0.37 -0.28 -0.28 -0.09 -0.11 -0.02 -0.02 -0.08 -0.09 -0.05 -0.08 -0.08 -0.03 0.03 0.22 0.22 0.00 0.02 0.09 0.09 0.01 0.17 0.17 0.17 0.25 0.25 0.25 0.27 0.13 0.16 0.12 0.12 0.16 0.05 0.00 0.00 0.00 0.00 0.00 0.00 0.01 0.00 0.00 0.02 -0.03 -0.05 -0.05 -0.07 -0.03
-0.05 -0.04 -0.04 -0.05 -0.05 -0.05 -0.05 -0.01 -0.02 -0.02 -0.04 -0.03 -0.03 -0.03 -0.02 -0.03 -0.03 -0.05 -0.21 -0.21 -0.21 -0.24 -0.18 -0.09 -0.07 -0.07 -0.17 0.00 -0.09 -0.09 -0.08 -0.02 -0.01 -0.01 -0.01 0.03 0.03 -0.02 -0.10 -0.09 -0.09 -0.16 -0.30 -0.20 -0.32 -0.32 -0.27 -0.12 -0.11 -0.11 -0.01 -0.00 -0.11 -0.11 -0.36 -0.55 -0.55 -0.21 -0.11 -0.01 -0.01 -0.09 -0.07 -0.06 -0.09 -0.09 -0.05 0.04 0.24 0.24 0.31 0.12 0.20 0.20 0.12 0.21 0.21 0.11 0.06 0.10 0.10 0.18 0.27 0.29 0.10 0.10 0.07 0.02 0.03 0.03 0.03 0.03 0.00 0.00 0.00 0.00 0.00 -0.03 -0.03 -0.04 -0.04 -0.02 -0.04
-0.05 -0.05 -0.07 -0.06 -0.04 -0.04 -0.02 -0.03 -0.03 -0.03 -0.04 -0.04 -0.05 -0.05 -0.03 -0.05 -0.05 -0.09 -0.09 -0.07 -0.07 -0.11 -0.07 -0.04 -0.11 -0.11 -0.14 -0.04 -0.01 -0.01 -0.09 -0.18 -0.15 -0.15 -0.15 -0.09 -0.09 -0.10 -0.08 -0.06 -0.06 -0.12 -0.06 -0.05 -0.21 -0.21 -0.20 -0.17 -0.17 -0.17 -0.03 0.02 -0.03 -0.03 -0.13 -0.04 -0.04 -0.44 -0.13 -0.10 -0.10 -0.14 -0.09 -0.08 -0.10 -0.10 -0.04 0.10 0.15 0.15 -0.36 0.13 0.18 0.18 0.19 0.10 0.10 0.08 0.12 0.13 0.13 0.13 0.17 0.21 0.17 0.17 0.11 0.08 0.07 0.07 0.06 0.04 0.02 0.02 0.00 0.00 0.00 0.00 -0.01 0.00 0.00 -0.03 -0.01
-0.11 -0.08 -0.10 -0.07 -0.02 -0.02 -0.03 -0.04 -0.03 -0.03 -0.04 -0.05 -0.05 -0.05 -0.07 -0.04 -0.04 -0.17 -0.14 -0.08 -0.08 -0.08 -0.05 -0.01 0.07 0.07 -0.17 -0.22 -0.18 -0.18 -0.09 -0.06 -0.15 -0.15 -0.29 -0.28 -0.28 -0.12 -0.09 -0.11 -0.11 -0.14 -0.05 -0.10 -0.13 -0.13 -0.12 -0.11 -0.06 -0.06 -0.03 -0.02 -0.00 -0.00 -0.04 -0.05 -0.05 -0.36 -0.62 -0.11 -0.11 -0.13 -0.12 -0.07 -0.10 -0.10 -0.06 0.05 0.19 0.19 0.24 0.16 0.20 0.20 0.17 0.07 0.07 0.14 0.10 0.19 0.19 0.19 0.10 0.11 0.23 0.23 0.17 0.23 0.12 0.12 0.09 0.04 0.02 0.02 0.10 0.08 0.08 0.00 0.00 0.00 0.00 0.00 -0.01
-0.11 -0.08 -0.07 -0.06 -0.07 -0.07 -0.09 -0.04 -0.04 -0.04 -0.02 -0.01 -0.03 -0.03 -0.07 -0.08 -0.08 -0.11 -0.09 -0.10 -0.10 -0.09 -0.07 -0.05 0.07 0.07 0.05 -0.14 -0.13 -0.13 -0.17 -0.11 -0.06 -0.06 -0.21 -0.21 -0.21 -0.18 -0.07 -0.10 -0.10 -0.16 -0.10 -0.21 -0.15 -0.15 -0.23 -0.09 -0.05 -0.05 -0.02 -0.06 -0.02 -0.02 0.00 -0.16 -0.16 -0.15 -0.43 -0.53 -0.53 -0.23 -0.04 -0.10 -0.05 -0.05 -0.10 0.13 -0.05 -0.05 0.21 0.20 0.19 0.19 0.11 0.15 0.15 0.12 0.14 0.24 0.24 0.18 0.14 0.10 0.15 0.15 0.19 0.18 0.21 0.21 0.13 0.12 0.00 0.00 0.11 0.10 0.10 0.07 0.00 0.03 0.03 0.00 0.00
-0.06 -0.08 -0.07 -0.05 -0.04 -0.04 -0.03 -0.08 -0.09 -0.09 -0.07 -0.04 -0.02 -0.02 -0.03 -0.05 -0.05 -0.02 -0.01 -0.03 -0.03 -0.05 -0.11 -0.08 0.04 0.04 -0.01 0.03 0.05 0.05 0.00 -0.08 -0.11 -0.11 -0.15 -0.01 -0.01 -0.14 -0.15 -0.09 -0.09 0.00 0.11 -0.04 -0.05 -0.05 -0.15 -0.10 -0.11 -0.11 -0.03 -0.02 -0.04 -0.04 0.01 0.01 0.01 -0.21 -0.08 -0.22 -0.22 -0.44 -0.07 0.00 -0.04 -0.04 -0.10 -0.07 0.03 0.03 0.24 0.24 0.27 0.27 0.31 0.17 0.17 0.23 0.15 0.20 0.20 0.25 0.13 0.09 0.12 0.12 0.10 0.11 0.18 0.18 0.20 0.12 0.09 0.09 0.06 0.07 0.07 0.05 0.00 0.00 0.00 0.04 0.00
-0.08 -0.09 -0.08 -0.07 -0.04 -0.04 -0.05 -0.07 -0.07 -0.07 -0.07 -0.07 -0.06 -0.06 -0.05 -0.06 -0.06 -0.04 -0.06 -0.05 -0.05 -0.03 -0.03 -0.13 -0.14 -0.14 -0.08 0.01 0.02 0.02 0.04 0.02 -0.00 -0.00 -0.04 -0.02 -0.02 0.02 0.01 -0.04 -0.04 0.11 0.04 0.11 0.05 0.05 -0.00 -0.09 -0.03 -0.03 0.02 -0.01 0.00 0.00 0.01 0.02 0.02 0.03 -0.17 -0.20 -0.20 -0.14 -0.25 -0.01 -0.10 -0.10 -0.14 -0.08 -0.01 -0.01 0.38 0.32 0.29 0.29 0.28 0.25 0.25 0.25 0.22 0.12 0.12 0.15 0.16 0.17 0.14 0.14 0.11 0.08 0.10 0.10 0.16 0.10 0.11 0.11 0.14 0.09 0.09 0.03 0.07 0.01 0.01 0.00 0.02
-0.08 -0.07 -0.06 -0.08 -0.03 -0.03 -0.03 -0.02 -0.07 -0.07 -0.05 -0.07 -0.07 -0.07 -0.05 -0.07 -0.07 -0.02 -0.04 -0.04 -0.04 -0.01 -0.02 -0.03 -0.07 -0.07 -0.03 -0.01 0.01 0.01 -0.01 0.01 0.04 0.04 -0.03 0.00 0.00 0.06 0.02 0.02 0.02 -0.03 0.01 0.00 -0.03 -0.03 -0.10 -0.13 -0.14 -0.14 0.01 0.02 0.02 0.02 -0.07 -0.07 -0.07 0.04 0.05 -0.14 -0.14 -0.10 -0.08 -0.15 -0.03 -0.03 -0.03 -0.14 0.02 0.02 0.34 0.36 0.26 0.26 0.20 0.14 0.14 0.07 -0.27 0.07 0.07 0.20 0.23 0.09 0.03 0.03 0.13 0.06 0.06 0.06 0.08 0.08 0.10 0.10 0.12 0.10 0.10 0.05 0.05 0.03 0.03 0.00 0.00
-0.08 -0.08 -0.05 -0.01 -0.02 -0.02 -0.03 -0.03 -0.05 -0.05 -0.06 -0.06 -0.05 -0.05 -0.01 -0.01 -0.01 -0.04 -0.02 -0.02 -0.02 -0.04 -0.05 -0.05 -0.01 -0.01 0.00 -0.01 -0.02 -0.02 -0.02 -0.01 -0.02 -0.02 0.01 -0.00 -0.00 0.00 0.05 0.02 0.02 0.00 0.02 -0.01 -0.12 -0.12 -0.11 -0.11 -0.07 -0.07 -0.04 -0.03 0.01 0.01 0.00 -0.07 -0.07 -0.16 0.02 0.01 0.01 -0.09 -0.09 -0.10 -0.03 -0.03 0.01 0.01 0.05 0.05 0.12 0.25 0.17 0.17 0.19 0.21 0.21 0.17 -0.52 -0.28 -0.28 0.33 0.23 0.07 0.03 0.03 0.05 0.16 0.08 0.08 0.08 0.08 0.09 0.09 0.10 0.10 0.10 0.07 0.03 0.03 0.03 0.05 0.00
-0.08 -0.09 -0.07 -0.02 -0.02 -0.02 -0.04 -0.03 -0.02 -0.02 -0.03 -0.03 -0.02 -0.02 -0.01 -0.01 -0.01 -0.00 -0.00 -0.00 -0.00 -0.01 -0.01 -0.03 -0.02 -0.02 -0.02 0.00 0.00 0.00 0.00 0.00 0.00 0.00 0.00 0.00 0.00 0.04 0.01 0.03 0.03 -0.04 0.02 0.04 0.03 0.03 0.02 -0.08 0.01 0.01 -0.08 -0.03 -0.05 -0.05 -0.06 -0.16 -0.16 -0.05 -0.12 -0.20 -0.20 -0.21 -0.01 -0.10 -0.03 -0.03 0.07 -0.04 0.04 0.04 0.15 0.23 0.17 0.17 0.09 0.20 0.20 -0.27 -0.34 -0.16 -0.16 0.25 0.17 0.18 0.10 0.10 0.00 0.08 0.10 0.10 0.07 0.09 0.08 0.08 0.10 0.12 0.12 0.11 0.06 0.06 0.06 0.03 0.09
-0.05 -0.07 -0.08 -0.09 -0.09 -0.09 -0.05 -0.05 -0.06 -0.06 -0.04 -0.02 -0.03 -0.03 -0.01 -0.01 -0.01 -0.00 -0.00 -0.00 -0.00 -0.01 -0.01 -0.03 -0.04 -0.04 -0.03 -0.01 0.00 0.00 0.00 0.00 0.00 0.00 -0.00 -0.00 -0.00 0.02 0.03 -0.05 -0.05 0.02 0.02 0.06 0.03 0.03 0.05 0.04 0.05 0.05 0.02 0.02 -0.00 -0.00 0.02 -0.16 -0.16 -0.17 -0.04 -0.25 -0.25 -0.32 -0.27 -0.04 -0.19 -0.19 0.17 0.24 0.09 0.09 0.23 0.29 0.20 0.20 0.15 0.17 0.17 -0.07 0.01 -0.08 -0.08 -0.04 0.22 0.16 0.17 0.17 -0.02 0.02 0.08 0.08 0.13 0.12 0.09 0.09 0.11 0.13 0.13 0.18 0.07 0.05 0.05 0.06 0.14
-0.03 -0.05 -0.10 -0.16 -0.11 -0.11 -0.06 -0.06 -0.08 -0.08 -0.08 -0.08 -0.03 -0.03 -0.03 -0.02 -0.02 -0.01 -0.01 -0.01 -0.01 -0.04 -0.03 -0.03 -0.01 -0.01 -0.01 0.01 -0.00 -0.00 -0.00 -0.04 -0.02 -0.02 -0.02 -0.00 -0.00 0.00 0.00 0.01 0.01 0.03 0.04 0.02 0.04 0.04 0.03 0.03 0.02 0.02 0.03 0.03 0.04 0.04 0.04 0.01 0.01 -0.10 -0.03 -0.24 -0.24 -0.32 -0.34 -0.37 -0.12 -0.12 0.20 0.28 0.23 0.23 0.25 0.10 0.27 0.27 0.30 0.28 0.28 0.25 0.38 -0.16 -0.16 -0.13 0.11 0.09 0.15 0.15 0.17 0.15 0.08 0.08 0.13 0.10 0.12 0.12 0.12 0.12 0.12 0.14 0.11 0.05 0.05 0.05 0.10
-0.05 -0.13 -0.19 -0.14 -0.10 -0.10 -0.11 -0.09 -0.08 -0.08 -0.08 -0.01 -0.01 -0.01 -0.01 -0.02 -0.02 -0.02 -0.01 -0.01 -0.01 -0.01 -0.01 -0.00 -0.01 -0.01 -0.01 -0.02 0.02 0.02 0.01 -0.00 -0.00 -0.00 -0.00 -0.00 -0.00 -0.00 0.01 0.00 0.00 0.03 0.03 0.03 0.01 0.01 0.02 0.01 0.03 0.03 0.03 0.03 0.03 0.03 0.02 0.01 0.01 -0.16 -0.15 -0.21 -0.21 -0.20 -0.25 -0.30 -0.04 -0.04 -0.04 0.17 0.31 0.31 0.11 0.28 0.30 0.30 0.15 -0.22 -0.22 -0.36 -0.43 -0.12 -0.12 -0.34 -0.08 -0.05 0.08 0.08 0.15 0.09 0.08 0.08 0.09 0.12 0.09 0.09 0.12 0.12 0.12 0.15 0.27 0.23 0.23 0.04 0.06
-0.07 -0.13 -0.19 -0.23 -0.19 -0.19 -0.16 -0.11 -0.08 -0.08 -0.02 -0.01 -0.01 -0.01 -0.02 -0.01 -0.01 -0.00 -0.00 -0.00 -0.00 0.00 0.00 -0.01 -0.01 -0.01 -0.00 0.00 0.01 0.01 0.03 0.01 0.01 0.01 0.02 -0.00 -0.00 -0.00 0.01 0.01 0.01 0.04 0.03 0.02 0.02 0.02 0.03 0.01 0.01 0.01 0.03 0.01 0.02 0.02 0.01 0.01 0.01 -0.05 -0.17 -0.06 -0.06 -0.12 -0.15 -0.20 0.01 0.01 0.10 0.05 0.03 0.03 -0.17 0.02 0.17 0.17 0.63 -0.04 -0.04 -0.25 -0.51 -0.14 -0.14 -0.29 -0.15 -0.03 -0.00 -0.00 0.06 0.03 0.14 0.14 0.09 0.10 0.12 0.12 0.13 0.11 0.11 0.17 0.24 0.22 0.22 0.16 0.04
-0.15 -0.08 -0.06 -0.15 -0.14 -0.14 -0.12 -0.08 -0.03 -0.03 -0.01 -0.01 -0.00 -0.00 -0.01 -0.01 -0.01 0.00 -0.00 0.00 0.00 0.00 0.00 0.00 0.00 0.00 -0.01 0.00 0.00 0.00 0.00 -0.00 -0.00 -0.00 -0.05 -0.00 -0.00 -0.00 0.01 0.04 0.04 0.03 0.02 0.01 0.01 0.01 0.00 0.00 0.01 0.01 0.01 0.02 0.00 0.00 0.02 0.02 0.02 0.02 0.02 0.02 0.02 0.01 -0.07 -0.11 -0.01 -0.01 0.22 -0.09 -0.20 -0.20 -0.18 -0.27 0.47 0.47 0.76 0.39 0.39 0.13 0.04 0.07 0.07 -0.00 -0.08 0.03 0.04 0.04 0.09 0.14 0.12 0.12 0.11 0.08 0.10 0.10 0.12 0.07 0.07 0.08 0.22 0.17 0.17 0.23 0.09
-0.05 -0.25 -0.13 -0.12 -0.09 -0.09 -0.04 -0.02 -0.01 -0.01 -0.01 -0.00 -0.00 -0.00 0.00 -0.00 -0.00 0.00 0.00 -0.00 -0.00 -0.00 -0.00 0.00 0.00 0.00 0.00 0.00 0.00 0.00 0.00 -0.06 -0.06 -0.06 -0.08 -0.12 -0.12 -0.13 -0.05 -0.03 -0.03 -0.02 0.00 0.01 0.01 0.01 0.00 0.06 0.08 0.08 0.09 0.05 0.08 0.08 0.01 0.01 0.01 0.01 0.02 0.01 0.01 0.05 0.08 0.13 0.26 0.26 0.51 0.25 0.43 0.43 0.39 -0.03 0.19 0.19 0.02 0.34 0.34 0.29 -0.01 0.16 0.16 0.26 0.20 0.37 0.27 0.27 0.15 -0.28 0.23 0.23 0.13 0.14 0.02 0.02 0.11 0.08 0.08 0.10 0.16 0.16 0.16 0.13 0.11
-0.22 -0.19 -0.18 -0.12 -0.08 -0.08 -0.06 -0.02 -0.04 -0.04 -0.02 -0.10 -0.06 -0.06 -0.04 -0.01 -0.01 0.00 0.00 0.00 0.00 -0.00 0.00 0.00 0.00 0.00 0.00 0.00 -0.01 -0.01 -0.04 -0.26 -0.23 -0.23 -0.11 -0.12 -0.12 -0.12 -0.06 -0.05 -0.05 -0.02 -0.01 0.06 0.04 0.04 0.13 0.13 0.08 0.08 0.12 0.12 0.13 0.13 0.04 0.00 0.00 -0.02 0.01 -0.03 -0.03 0.02 0.03 0.06 0.29 0.29 0.39 0.22 0.28 0.28 0.40 -0.32 0.15 0.15 0.11 0.47 0.47 0.42 0.19 0.23 0.23 0.29 0.28 0.41 0.43 0.43 0.45 0.01 0.32 0.32 0.19 0.24 0.11 0.11 0.06 0.09 0.09 0.06 0.12 0.15 0.15 0.18 0.06
-0.06 -0.04 -0.07 -0.12 -0.10 -0.10 -0.08 -0.02 0.00 0.00 -0.00 -0.08 -0.09 -0.09 -0.06 -0.04 -0.04 -0.01 -0.01 -0.00 -0.00 -0.01 -0.01 -0.02 0.00 0.00 -0.01 -0.12 -0.18 -0.18 -0.25 -0.04 -0.09 -0.09 -0.10 -0.04 -0.04 -0.01 0.01 0.05 0.05 0.03 0.10 0.12 0.13 0.13 0.25 0.16 0.20 0.20 0.13 0.12 0.07 0.07 0.10 0.01 0.01 -0.02 -0.04 -0.02 -0.02 -0.01 0.02 0.05 0.09 0.09 0.31 0.33 0.15 0.15 0.31 0.41 0.02 0.02 0.22 0.15 0.15 0.46 0.28 0.24 0.24 0.39 0.44 0.20 0.42 0.42 0.13 -0.04 0.52 0.52 0.39 0.25 0.23 0.23 0.10 0.04 0.04 0.07 0.07 0.11 0.11 0.16 0.15
-0.01 -0.03 -0.01 -0.02 -0.01 -0.01 -0.01 -0.04 -0.02 -0.02 0.00 0.00 -0.00 -0.00 0.00 0.00 0.00 0.00 -0.00 -0.01 -0.01 -0.00 -0.00 -0.00 -0.01 -0.01 -0.01 -0.03 -0.03 -0.03 -0.03 -0.02 -0.02 -0.02 -0.03 0.01 0.01 0.02 0.02 -0.02 -0.02 0.02 0.11 0.21 0.31 0.31 0.28 0.24 0.20 0.20 0.20 0.13 0.06 0.06 0.04 0.03 0.03 0.01 0.04 0.10 0.10 0.04 0.01 0.20 0.29 0.29 0.34 0.30 0.21 0.21 0.01 0.38 0.03 0.03 -0.07 0.15 0.15 0.53 0.45 0.31 0.31 0.42 0.16 0.53 -0.28 -0.28 -0.50 0.01 0.42 0.42 0.58 0.42 0.21 0.21 0.16 0.15 0.15 0.10 0.08 0.10 0.10 0.15 0.15
-0.02 -0.02 -0.02 -0.02 -0.02 -0.02 -0.01 -0.01 -0.01 -0.01 -0.02 -0.00 0.00 0.00 0.00 -0.01 -0.01 0.00 -0.00 -0.00 -0.00 -0.00 0.00 0.00 -0.01 -0.01 -0.01 -0.01 -0.02 -0.02 -0.02 -0.02 -0.01 -0.01 -0.00 -0.01 -0.01 0.02 0.02 0.02 0.02 0.02 -0.02 0.01 0.10 0.10 0.15 0.23 0.13 0.13 0.11 0.13 0.08 0.08 0.05 0.03 0.03 0.03 0.07 0.07 0.07 0.15 0.17 0.19 0.24 0.24 0.29 0.30 0.23 0.23 0.04 0.04 0.13 0.13 0.13 0.30 0.30 0.44 0.58 0.38 0.38 0.49 0.39 -0.32 -0.27 -0.27 0.13 0.29 0.25 0.25 0.51 0.42 0.37 0.37 0.21 0.19 0.19 0.14 0.12 0.10 0.10 0.08 0.13
0.00 -0.00 -0.03 -0.03 -0.00 -0.00 0.00 0.00 0.00 0.00 0.00 0.00 0.00 0.00 0.00 0.00 0.00 0.00 -0.00 -0.00 -0.00 -0.00 0.00 0.00 0.00 0.00 0.00 0.00 -0.01 -0.01 -0.00 -0.02 -0.03 -0.03 -0.02 -0.00 -0.00 0.02 -0.00 0.02 0.02 0.02 -0.00 0.03 0.02 0.02 -0.00 0.14 0.18 0.18 0.13 0.13 0.12 0.12 0.13 0.10 0.10 0.07 0.09 0.07 0.07 0.07 0.12 0.06 0.18 0.18 0.23 0.27 0.24 0.24 0.20 0.05 0.18 0.18 -0.03 0.22 0.22 0.42 0.29 0.59 0.59 0.56 0.59 -0.12 0.40 0.40 0.49 0.44 0.42 0.42 0.43 0.54 0.50 0.50 0.43 0.34 0.34 0.20 0.11 0.07 0.07 0.09 0.06
-0.00 -0.00 -0.01 -0.02 -0.00 -0.00 0.00 0.00 0.00 0.00 0.00 0.00 0.00 0.00 0.00 0.00 0.00 -0.00 -0.00 0.00 0.00 0.00 0.00 0.00 0.00 0.00 0.00 0.00 0.00 0.00 -0.00 -0.00 -0.02 -0.02 -0.02 -0.04 -0.04 -0.03 -0.04 0.02 0.02 0.03 0.02 -0.01 -0.01 -0.01 0.00 0.02 0.09 0.09 0.14 0.10 0.09 0.09 0.13 0.14 0.14 0.10 0.09 0.06 0.06 0.06 0.03 0.03 0.10 0.10 0.17 0.24 0.29 0.29 0.25 0.25 0.04 0.04 -0.03 -0.01 -0.01 0.02 0.25 0.40 0.40 0.65 0.77 0.43 0.54 0.54 0.60 0.52 0.59 0.59 0.50 0.71 0.62 0.62 0.53 0.42 0.42 0.30 0.17 0.10 0.10 0.08 0.09
-0.00 -0.00 -0.00 0.00 0.00 0.00 0.00 0.00 0.00 0.00 0.00 0.00 0.00 0.00 0.00 0.00 0.00 0.00 0.00 0.00 0.00 -0.00 0.00 0.00 0.00 0.00 0.00 0.00 -0.00 -0.00 0.00 0.00 0.00 0.00 -0.02 -0.04 -0.04 -0.04 -0.04 -0.02 -0.02 0.01 0.02 0.02 0.01 0.01 0.00 0.02 0.00 0.00 0.03 0.03 0.07 0.07 0.06 0.09 0.09 0.10 0.12 0.11 0.11 0.04 0.01 0.01 0.01 0.01 0.05 0.16 0.16 0.16 0.30 0.29 0.19 0.19 0.14 -0.02 -0.02 -0.03 0.16 0.29 0.29 0.46 0.64 0.49 0.67 0.67 0.39 0.47 0.66 0.66 0.69 0.79 0.76 0.76 0.63 0.48 0.48 0.25 0.30 0.23 0.23 0.13 0.07
0.00 0.00 0.00 0.00 0.00 0.00 0.00 0.00 0.00 0.00 0.00 0.00 0.00 0.00 0.00 0.00 0.00 0.00 0.00 0.00 0.00 0.00 0.00 0.00 0.00 0.00 0.00 0.00 0.00 0.00 0.00 0.00 -0.00 -0.00 -0.00 -0.00 -0.00 -0.04 -0.03 -0.02 -0.02 0.00 0.00 0.02 0.01 0.01 0.02 0.01 0.01 0.01 0.01 0.01 0.03 0.03 0.06 0.05 0.05 0.08 0.07 0.09 0.09 0.10 0.04 0.01 0.01 0.01 0.01 0.03 0.08 0.08 0.17 0.23 0.23 0.23 0.26 0.22 0.22 0.09 -0.13 0.13 0.13 0.31 0.30 0.46 0.58 0.58 0.29 0.48 0.74 0.74 0.84 0.84 0.77 0.77 0.73 0.64 0.64 0.30 0.24 0.22 0.22 0.21 0.12
0.00 0.00 0.00 0.00 0.00 0.00 0.00 0.00 0.00 0.00 0.00 0.00 0.00 0.00 0.00 0.00 0.00 0.00 0.00 0.00 0.00 0.00 0.00 0.00 0.00 0.00 0.00 0.00 0.00 0.00 0.00 0.00 0.00 0.00 0.00 0.00 0.00 -0.00 -0.01 -0.02 -0.02 -0.02 0.03 0.03 0.03 0.03 0.03 0.02 0.01 0.01 0.01 0.01 0.04 0.04 0.02 0.04 0.04 0.04 0.02 0.04 0.04 0.07 0.08 0.09 0.04 0.04 0.02 0.01 0.14 0.14 0.12 0.16 0.23 0.23 0.19 0.29 0.29 0.30 -0.36 -0.06 -0.06 -0.02 0.21 0.10 0.35 0.35 0.32 0.53 0.64 0.64 0.64 0.57 0.83 0.83 0.77 0.85 0.85 0.51 0.22 0.20 0.20 0.16 0.19
0.00 0.00 0.00 0.00 0.00 0.00 0.00 0.00 0.00 0.00 0.00 0.00 0.00 0.00 0.00 0.00 0.00 0.00 0.00 0.00 0.00 0.00 0.00 0.00 0.00 0.00 0.00 0.00 0.00 0.00 0.00 0.00 0.00 0.00 0.00 -0.00 -0.00 -0.00 -0.01 -0.01 -0.01 -0.01 0.01 0.02 0.01 0.01 0.03 0.03 0.03 0.03 0.02 0.05 0.04 0.04 0.02 0.01 0.01 0.01 0.04 0.03 0.03 0.03 0.07 0.07 0.03 0.03 0.02 0.02 0.26 0.26 0.24 0.18 0.12 0.12 0.15 0.29 0.29 0.29 -0.20 0.15 0.15 0.34 0.04 0.19 0.42 0.42 0.47 0.50 0.58 0.58 0.55 0.64 0.67 0.67 0.76 0.81 0.81 0.85 0.33 0.26 0.26 0.23 0.13
0.00 0.00 0.00 0.00 0.00 0.00 0.00 0.00 0.00 0.00 0.00 0.00 0.00 0.00 0.00 0.00 0.00 0.00 0.00 0.00 0.00 0.00 0.00 0.00 0.00 0.00 0.00 0.00 0.00 0.00 0.00 0.00 0.00 0.00 0.00 -0.00 -0.00 0.00 0.00 0.00 0.00 0.00 0.00 0.00 0.00 0.00 0.00 0.03 0.04 0.04 0.05 0.07 0.06 0.06 0.06 0.04 0.04 0.05 0.07 0.06 0.06 0.03 0.03 0.02 0.07 0.07 0.03 0.01 0.02 0.02 0.29 0.25 0.23 0.23 0.17 0.30 0.30 0.13 0.06 0.11 0.11 0.20 0.26 0.31 0.37 0.37 0.49 0.27 0.34 0.34 0.40 0.75 0.75 0.75 0.78 0.78 0.78 0.86 0.75 0.40 0.40 0.30 0.23
0.00 0.00 0.00 0.00 0.00 0.00 0.00 0.00 0.00 0.00 0.00 0.00 0.00 0.00 0.00 0.00 0.00 -0.00 0.00 0.00 0.00 0.00 0.00 0.00 0.00 0.00 0.00 0.00 0.00 0.00 0.00 0.00 0.00 0.00 0.00 0.00 0.00 0.00 0.00 0.00 0.00 0.00 0.00 0.00 0.00 0.00 0.00 0.01 0.03 0.03 0.03 0.09 0.10 0.10 0.07 0.07 0.07 0.07 0.05 0.09 0.09 0.06 0.02 0.00 0.02 0.02 0.06 0.04 0.05 0.05 0.25 0.21 0.21 0.21 0.18 0.27 0.27 0.17 0.32 0.13 0.13 -0.05 -0.00 0.69 0.82 0.82 0.81 0.35 0.54 0.54 0.45 0.68 0.79 0.79 0.78 0.80 0.80 0.91 0.85 0.83 0.83 0.37 0.26
0.00 0.00 0.00 0.00 0.00 0.00 0.00 0.00 0.00 0.00 0.00 -0.00 -0.00 -0.00 -0.00 0.00 0.00 0.00 0.00 0.00 0.00 0.00 0.00 0.00 0.00 0.00 0.00 0.00 0.00 0.00 0.00 0.00 0.00 0.00 0.00 0.00 0.00 0.00 0.00 0.00 0.00 0.00 0.00 0.00 0.00 0.00 0.00 0.00 0.02 0.02 0.03 0.05 0.06 0.06 0.09 0.06 0.06 0.08 0.06 0.06 0.06 0.09 0.07 0.04 0.02 0.02 0.03 0.04 0.05 0.05 0.10 0.29 0.19 0.19 0.15 0.11 0.11 0.22 -0.04 -0.08 -0.08 -0.17 -0.02 0.08 0.28 0.28 0.15 0.78 0.50 0.50 0.64 0.65 0.70 0.70 0.77 0.67 0.67 0.75 0.97 0.97 0.97 0.73 0.38
0.00 0.00 0.00 0.00 0.00 0.00 0.00 0.00 0.00 0.00 0.00 0.00 0.00 0.00 -0.00 0.00 0.00 0.00 0.00 0.00 0.00 0.00 0.00 0.00 0.00 0.00 0.00 0.00 0.00 0.00 0.00 0.00 0.00 0.00 0.00 0.00 0.00 0.00 0.00 0.00 0.00 0.00 0.00 0.00 0.00 0.00 0.00 0.00 0.02 0.02 0.05 0.05 0.07 0.07 0.05 0.06 0.06 0.07 0.07 0.06 0.06 0.06 0.06 0.10 0.06 0.06 0.06 0.06 0.07 0.07 0.12 0.15 0.15 0.15 0.18 0.07 0.07 0.16 0.03 -0.10 -0.10 -0.03 0.13 -0.16 0.04 0.04 0.43 1.01 0.72 0.72 0.39 0.38 0.42 0.42 0.61 0.63 0.63 0.55 0.70 0.98 0.98 0.84 0.52
0.00 0.00 0.00 0.00 0.00 0.00 0.00 0.00 0.00 0.00 0.00 0.00 0.00 0.00 0.00 0.00 0.00 0.00 0.00 0.00 0.00 0.00 0.00 0.00 0.00 0.00 -0.00 -0.00 0.00 0.00 0.00 0.00 0.00 0.00 0.00 0.00 0.00 0.00 0.00 0.00 0.00 0.00 0.00 0.00 0.00 0.00 0.00 0.00 0.00 0.00 0.02 0.06 0.06 0.06 0.08 0.06 0.06 0.05 0.07 0.06 0.06 0.04 0.04 0.07 0.09 0.09 0.04 0.04 0.08 0.08 0.10 0.13 0.13 0.13 0.13 0.08 0.08 0.03 -0.02 0.02 0.02 0.21 0.04 -0.18 -0.01 -0.01 0.40 0.84 0.55 0.55 0.90 0.56 0.48 0.48 0.48 0.62 0.62 0.59 0.61 0.74 0.74 0.84 0.63
0.00 0.00 0.00 0.00 0.00 0.00 0.00 0.00 0.00 0.00 0.00 0.00 0.00 0.00 0.00 0.00 0.00 0.00 0.00 0.00 0.00 0.00 -0.00 -0.00 -0.00 -0.00 -0.00 -0.00 0.00 0.00 0.00 0.00 0.00 0.00 0.00 0.00 0.00 0.00 0.00 0.00 0.00 -0.00 0.00 0.00 0.00 0.00 -0.01 -0.01 0.00 0.00 0.02 0.02 0.05 0.05 0.05 0.05 0.05 0.04 0.06 0.05 0.05 0.05 0.04 0.06 0.07 0.07 0.07 0.06 0.06 0.06 0.09 0.12 0.13 0.13 0.14 0.11 0.11 0.03 0.08 0.13 0.13 0.13 0.11 -0.03 -0.03 -0.03 0.46 0.36 0.91 0.91 1.04 0.97 0.70 0.70 0.57 0.61 0.61 0.63 0.61 0.63 0.63 0.86 0.73
0.00 0.00 0.00 0.00 0.00 0.00 0.00 0.00 0.00 0.00 0.00 0.00 0.00 0.00 0.00 0.00 0.00 0.00 0.00 0.00 0.00 0.00 0.00 -0.00 -0.00 -0.00 -0.00 0.00 0.00 0.00 0.00 0.00 0.00 0.00 0.00 -0.00 -0.00 -0.00 0.00 0.00 0.00 0.00 0.00 -0.00 -0.00 -0.00 -0.01 -0.01 -0.00 -0.00 -0.01 0.01 0.02 0.02 0.07 0.04 0.04 0.04 0.05 0.03 0.03 0.05 0.08 0.04 0.07 0.07 0.08 0.11 0.07 0.07 0.06 0.07 0.10 0.10 0.13 0.16 0.16 0.13 0.18 0.18 0.18 0.17 0.30 0.09 0.08 0.08 0.17 0.06 0.71 0.71 1.17 1.00 1.01 1.01 0.81 0.71 0.71 0.67 0.57 0.64 0.64 0.83 0.91
0.00 0.00 0.00 0.00 0.00 0.00 0.00 0.00 0.00 0.00 0.00 0.00 0.00 0.00 0.00 0.00 0.00 0.00 0.00 0.00 0.00 0.00 0.00 -0.00 0.00 0.00 0.00 0.00 0.00 0.00 0.00 -0.00 -0.00 -0.00 -0.00 -0.00 -0.00 -0.00 -0.00 -0.00 -0.00 -0.00 -0.00 -0.00 -0.00 -0.00 -0.01 -0.02 -0.02 -0.02 -0.02 0.00 0.00 0.00 0.02 0.06 0.06 0.04 0.03 0.03 0.03 0.06 0.08 0.08 0.04 0.04 0.07 0.09 0.06 0.06 0.08 0.05 0.05 0.05 0.09 0.13 0.13 0.18 0.19 0.27 0.27 0.22 0.28 0.18 0.30 0.30 -0.06 0.14 0.43 0.43 1.10 1.65 1.00 1.00 0.59 0.85 0.85 0.70 0.65 0.61 0.61 0.82 0.96
0.00 0.00 0.00 0.00 0.00 0.00 0.00 0.00 0.00 0.00 0.00 0.00 0.00 0.00 0.00 0.00 0.00 0.00 0.00 0.00 0.00 0.00 0.00 0.00 0.00 0.00 0.00 0.00 0.00 0.00 0.00 -0.00 -0.00 -0.00 -0.00 -0.00 -0.00 -0.00 -0.00 -0.00 -0.00 -0.00 -0.00 -0.00 -0.01 -0.01 -0.03 -0.02 -0.03 -0.03 -0.04 -0.03 -0.00 -0.00 0.01 0.01 0.01 0.07 0.07 0.05 0.05 0.02 0.05 0.09 0.09 0.09 0.06 0.08 0.09 0.09 0.07 0.05 0.07 0.07 0.06 0.07 0.07 0.15 0.17 0.09 0.09 0.10 0.16 0.23 0.27 0.27 -0.04 0.15 0.31 0.31 0.89 1.01 1.68 1.68 1.31 1.40 1.40 1.01 0.76 0.74 0.74 0.68 0.99
0.00 0.00 0.00 0.00 0.00 0.00 0.00 0.00 0.00 0.00 0.00 0.00 0.00 0.00 0.00 0.00 0.00 0.00 0.00 0.00 0.00 0.00 0.00 0.00 0.00 0.00 0.00 0.00 0.00 0.00 0.00 0.00 -0.00 -0.00 -0.00 -0.00 -0.00 -0.00 0.00 -0.01 -0.01 -0.00 -0.00 -0.01 -0.04 -0.04 -0.05 -0.05 -0.04 -0.04 -0.05 -0.05 -0.04 -0.04 -0.01 -0.00 -0.00 0.01 0.11 0.09 0.09 0.06 0.07 0.09 0.12 0.12 0.07 0.09 0.08 0.08 0.11 0.07 0.07 0.07 0.05 0.06 0.06 0.08 0.10 0.10 0.10 0.14 0.14 0.10 0.04 0.04 0.04 -0.09 0.08 0.08 0.40 0.54 1.19 1.19 1.87 1.86 1.86 1.55 1.05 0.82 0.82 0.68 0.62
0.00 0.00 0.00 0.00 0.00 0.00 0.00 0.00 0.00 0.00 0.00 0.00 0.00 0.00 0.00 0.00 0.00 0.00 0.00 0.00 0.00 0.00 0.00 0.00 0.01 0.01 0.01 0.01 0.00 0.00 0.00 -0.00 -0.00 -0.00 -0.00 -0.00 -0.00 -0.00 -0.00 -0.01 -0.01 -0.00 -0.00 -0.00 -0.01 -0.01 -0.02 -0.03 -0.01 -0.01 -0.01 -0.02 -0.02 -0.02 -0.01 0.00 0.00 0.01 0.02 0.09 0.09 0.10 0.09 0.09 0.12 0.12 0.13 0.11 0.08 0.08 0.09 0.09 0.09 0.09 0.08 0.04 0.04 0.03 0.07 0.12 0.12 0.11 0.18 0.06 0.11 0.11 0.09 -0.04 -0.03 -0.03 0.12 0.15 0.54 0.54 1.15 1.98 1.98 1.74 1.49 1.36 1.36 0.77 0.65
0.00 0.00 0.00 0.00 0.00 0.00 0.00 0.00 0.00 0.00 0.00 0.00 0.00 0.00 0.00 0.00 0.00 0.00 0.00 0.00 0.00 0.00 0.00 0.00 0.01 0.01 0.01 0.01 0.00 0.00 0.00 -0.00 -0.00 -0.00 -0.00 -0.00 -0.00 -0.00 -0.00 -0.00 -0.00 -0.00 -0.00 -0.00 -0.00 -0.00 -0.01 -0.01 -0.02 -0.02 -0.02 -0.01 -0.02 -0.02 -0.01 -0.00 -0.00 0.00 0.00 0.06 0.06 0.11 0.11 0.08 0.12 0.12 0.12 0.15 0.08 0.08 0.10 0.12 0.10 0.10 0.08 0.08 0.08 0.07 0.04 0.08 0.08 0.13 0.08 0.15 0.16 0.16 0.14 0.10 -0.02 -0.02 -0.02 0.04 0.32 0.32 0.96 1.36 1.36 1.72 1.71 1.45 1.45 1.11 0.78
0.00 0.00 0.00 0.00 0.00 0.00 0.00 0.00 0.00 0.00 0.00 0.00 0.00 0.00 0.00 0.00 0.00 0.00 0.00 0.00 0.00 0.01 0.01 0.02 0.03 0.03 0.03 0.00 0.00 0.00 0.00 0.00 0.00 0.00 -0.00 -0.00 -0.00 -0.00 -0.00 -0.00 -0.00 -0.00 -0.00 -0.00 -0.00 -0.00 -0.00 -0.00 -0.00 -0.00 -0.01 -0.05 -0.00 -0.00 -0.01 -0.01 -0.01 -0.00 0.00 -0.00 -0.00 -0.00 0.03 0.06 0.11 0.11 0.07 0.06 0.10 0.10 0.11 0.16 0.15 0.15 0.16 0.09 0.09 0.09 0.06 0.06 0.06 0.06 0.04 0.09 0.13 0.13 0.15 0.14 0.16 0.16 0.06 0.02 0.14 0.14 0.10 0.39 0.39 0.51 0.94 1.10 1.10 1.42 1.25
0.00 0.00 0.00 0.00 0.00 0.00 0.00 0.00 0.00 0.00 0.00 0.00 0.00 0.00 0.00 0.00 0.00 0.00 0.00 0.00 0.00 0.01 0.02 0.02 0.03 0.03 0.02 0.00 -0.00 -0.00 -0.00 0.00 0.00 0.00 -0.00 -0.00 -0.00 -0.00 -0.00 -0.00 -0.00 -0.00 -0.00 -0.00 -0.00 -0.00 -0.00 -0.00 -0.00 -0.00 -0.00 -0.01 -0.02 -0.02 -0.00 -0.00 -0.00 -0.01 -0.00 0.00 0.00 0.00 0.03 0.06 0.08 0.08 0.07 0.04 0.03 0.03 0.05 0.16 0.17 0.17 0.15 0.16 0.16 0.10 0.08 0.05 0.05 0.05 0.03 0.03 0.10 0.10 0.15 0.17 0.19 0.19 0.10 0.03 0.06 0.06 0.09 -0.02 -0.02 0.54 0.71 1.07 1.07 1.15 1.36
0.00 0.00 0.00 0.00 0.00 0.00 -0.00 0.00 0.00 0.00 0.00 0.00 0.00 0.00 0.00 0.00 0.00 0.00 0.00 0.00 0.00 0.01 0.02 0.03 0.02 0.02 0.01 -0.00 -0.00 -0.00 -0.00 -0.00 -0.00 -0.00 -0.00 -0.00 -0.00 -0.00 -0.00 -0.00 -0.00 -0.00 -0.01 -0.01 -0.00 -0.00 -0.00 -0.00 -0.00 -0.00 -0.01 -0.00 -0.00 -0.00 -0.00 -0.00 -0.00 -0.01 -0.01 0.00 0.00 0.00 0.00 0.05 0.07 0.07 0.07 0.08 -0.02 -0.02 0.04 0.12 0.19 0.19 0.19 0.13 0.13 0.18 0.09 0.06 0.06 0.06 0.05 0.03 0.03 0.03 0.05 0.15 0.16 0.16 0.13 0.10 0.09 0.09 0.13 -0.04 -0.04 0.09 0.68 0.59 0.59 0.98 1.09
0.00 0.00 0.00 0.00 0.00 0.00 0.00 0.00 0.00 0.00 0.00 0.00 0.00 0.00 0.00 0.00 0.00 0.00 0.00 0.00 0.00 0.01 0.03 0.04 0.02 0.02 0.01 0.00 -0.00 -0.00 -0.00 -0.00 -0.01 -0.01 -0.01 -0.01 -0.01 -0.00 -0.00 -0.00 -0.00 -0.00 -0.01 -0.01 -0.01 -0.01 -0.00 -0.01 -0.01 -0.01 -0.01 -0.01 -0.00 -0.00 -0.00 -0.00 -0.00 -0.00 0.00 0.00 0.00 -0.00 -0.00 0.01 0.06 0.06 0.06 0.09 0.12 0.12 0.09 0.14 0.15 0.15 0.23 0.27 0.27 0.23 0.19 0.11 0.11 0.06 0.05 0.04 0.01 0.01 0.02 0.08 0.16 0.16 0.13 0.08 0.02 0.02 0.08 -0.11 -0.11 -0.01 0.19 0.40 0.40 0.85 0.95
0.00 0.00 0.00 0.00 0.00 0.00 0.00 0.00 0.00 0.00 0.00 0.00 0.00 0.00 0.00 0.00 0.00 0.00 0.00 0.01 0.01 0.02 0.05 0.05 0.02 0.02 0.00 -0.00 -0.00 -0.00 -0.00 -0.00 -0.01 -0.01 -0.02 -0.02 -0.02 -0.02 -0.01 -0.00 -0.00 -0.01 -0.01 -0.01 -0.01 -0.01 -0.01 -0.01 -0.01 -0.01 -0.01 -0.01 -0.01 -0.01 -0.00 -0.00 -0.00 -0.00 0.00 -0.00 -0.00 -0.00 -0.00 -0.00 0.01 0.01 0.03 0.08 0.12 0.12 0.15 0.16 0.14 0.14 0.20 0.24 0.24 0.24 0.22 0.17 0.17 0.08 0.08 0.06 0.03 0.03 0.02 0.06 0.09 0.09 0.10 0.10 0.11 0.11 0.00 -0.07 -0.07 -0.07 0.17 0.07 0.07 0.22 0.77
0.00 0.00 0.00 0.00 0.00 0.00 0.00 0.00 0.00 0.00 0.00 0.00 0.00 0.00 0.00 0.00 0.00 0.00 0.00 0.01 0.01 0.04 0.05 0.03 0.01 0.01 0.00 -0.00 -0.01 -0.01 0.00 0.00 -0.01 -0.01 -0.03 -0.03 -0.03 -0.02 -0.02 -0.01 -0.01 -0.01 -0.01 -0.01 -0.01 -0.01 -0.01 -0.01 -0.01 -0.01 -0.01 -0.01 -0.01 -0.01 -0.01 -0.00 -0.00 -0.00 -0.00 0.02 0.02 0.01 0.03 0.03 0.01 0.01 0.06 0.05 0.08 0.08 0.16 0.14 0.15 0.15 0.17 0.21 0.21 0.27 0.23 0.20 0.20 0.15 0.10 0.08 0.06 0.06 0.07 0.04 0.09 0.09 0.08 0.12 0.08 0.08 0.06 -0.09 -0.09 -0.15 -0.05 -0.03 -0.03 0.20 0.36
0.00 0.00 0.00 0.00 0.00 0.00 0.00 0.00 0.00 0.00 0.00 0.00 0.00 0.00 0.00 0.00 0.00 0.00 0.00 0.01 0.01 0.05 0.04 0.02 0.02 0.02 0.00 0.01 -0.00 -0.00 -0.00 -0.01 -0.01 -0.01 -0.04 -0.04 -0.04 -0.01 -0.01 -0.01 -0.01 -0.01 -0.01 -0.01 -0.01 -0.01 -0.01 -0.01 -0.01 -0.01 -0.01 -0.01 -0.01 -0.01 -0.01 -0.01 -0.01 -0.00 0.01 0.02 0.02 0.01 0.02 0.02 0.04 0.04 0.07 0.05 0.08 0.08 0.13 0.12 0.14 0.14 0.16 0.19 0.19 0.23 0.26 0.23 0.23 0.18 0.17 0.12 0.09 0.09 0.13 0.09 0.07 0.07 0.07 0.07 0.12 0.12 0.10 -0.02 -0.02 -0.15 0.05 -0.15 -0.15 0.06 0.21
0.00 0.00 0.00 0.00 0.00 0.00 0.00 0.00 0.00 0.00 0.00 0.00 0.00 0.00 0.00 0.00 0.00 0.00 0.00 0.01 0.01 0.03 0.03 0.02 -0.00 -0.00 0.00 0.01 0.01 0.01 0.00 -0.01 -0.03 -0.03 -0.05 -0.03 -0.03 -0.01 0.00 0.00 0.00 -0.00 -0.00 -0.00 -0.00 -0.00 -0.01 -0.00 -0.00 -0.00 -0.00 -0.00 -0.00 -0.00 -0.00 -0.01 -0.01 -0.01 -0.00 0.01 0.01 0.01 0.02 0.02 0.05 0.05 0.04 0.05 0.08 0.08 0.10 0.09 0.12 0.12 0.15 0.20 0.20 0.24 0.28 0.27 0.27 0.23 0.24 0.16 0.14 0.14 0.16 0.14 0.10 0.10 0.06 0.04 0.09 0.09 0.11 0.02 0.02 -0.05 -0.02 0.00 0.00 -0.05 0.11
0.00 0.00 0.00 0.00 0.00 0.00 0.00 0.00 0.00 0.00 0.00 0.00 0.00 0.00 0.00 0.00 0.00 0.00 0.00 0.02 0.02 0.04 0.03 0.02 0.01 0.01 -0.01 0.00 0.01 0.01 -0.00 -0.01 -0.04 -0.04 -0.07 0.00 0.00 0.02 0.02 0.01 0.01 -0.00 -0.00 0.00 -0.00 -0.00 -0.00 -0.00 -0.00 -0.00 -0.00 -0.00 -0.00 -0.00 -0.00 -0.01 -0.01 -0.00 -0.00 -0.00 -0.00 0.01 0.01 0.02 0.03 0.03 0.01 0.02 0.03 0.03 0.08 0.10 0.11 0.11 0.17 0.20 0.20 0.19 0.29 0.32 0.32 0.33 0.30 0.23 0.19 0.19 0.17 0.15 0.12 0.12 0.08 0.03 0.06 0.06 0.09 0.09 0.09 0.01 0.01 -0.14 -0.14 -0.11 -0.24
0.00 0.00 0.00 0.00 0.00 0.00 0.00 0.00 0.00 0.00 0.00 0.00 0.00 0.00 0.00 0.00 0.00 0.00 0.01 0.03 0.03 0.05 0.02 0.01 0.01 0.01 0.00 -0.00 -0.00 -0.00 -0.00 -0.01 -0.03 -0.03 -0.05 0.00 0.00 0.03 0.02 -0.07 -0.07 -0.02 0.00 -0.00 0.00 0.00 0.00 0.00 -0.00 -0.00 -0.00 -0.00 -0.00 -0.00 -0.00 -0.00 -0.00 -0.01 -0.00 -0.00 -0.00 -0.00 -0.00 0.01 0.00 0.00 0.00 0.01 0.01 0.01 0.02 0.09 0.14 0.14 0.17 0.19 0.19 0.17 0.24 0.31 0.31 0.33 0.32 0.27 0.23 0.23 0.23 0.14 0.12 0.12 0.10 0.07 0.06 0.06 0.08 0.08 0.08 0.05 -0.01 -0.21 -0.21 -0.14 -0.03
0.00 0.00 0.00 0.00 0.00 0.00 0.00 0.00 0.00 0.00 0.00 0.00 0.00 0.00 -0.00 -0.00 -0.00 0.00 0.02 0.04 0.04 0.05 0.03 0.01 0.01 0.01 0.01 -0.00 -0.00 -0.00 -0.00 -0.01 -0.02 -0.02 -0.03 0.02 0.02 0.04 -0.03 -0.04 -0.04 -0.02 0.01 -0.00 0.00 0.00 0.00 0.00 0.00 0.00 0.00 0.00 -0.00 -0.00 -0.00 -0.00 -0.00 -0.00 -0.00 -0.00 -0.00 -0.00 -0.00 -0.00 -0.00 -0.00 0.00 0.00 0.01 0.01 0.02 0.03 0.12 0.12 0.13 0.16 0.16 0.19 0.21 0.28 0.28 0.32 0.34 0.31 0.30 0.30 0.28 0.24 0.13 0.13 0.12 0.11 0.08 0.08 0.03 0.09 0.09 0.08 0.03 0.03 0.03 -0.08 0.05
0.00 0.00 0.00 0.00 0.00 0.00 0.00 0.00 0.00 0.00 0.00 0.00 -0.00 -0.00 -0.00 -0.00 -0.00 -0.00 0.01 0.05 0.05 0.04 0.02 0.01 0.02 0.02 0.03 0.01 0.01 0.01 -0.00 -0.01 -0.02 -0.02 0.00 0.07 0.07 0.04 0.02 0.01 0.01 0.02 -0.01 -0.01 -0.00 -0.00 -0.00 0.00 -0.00 -0.00 0.00 0.00 -0.00 -0.00 -0.00 -0.00 -0.00 -0.00 -0.00 -0.02 -0.02 -0.01 -0.00 0.00 -0.00 -0.00 0.01 0.00 0.01 0.01 0.02 0.03 0.04 0.04 0.17 0.19 0.19 0.21 0.23 0.22 0.22 0.25 0.31 0.34 0.31 0.31 0.28 0.25 0.23 0.23 0.21 0.13 0.11 0.11 0.05 0.04 0.04 0.11 0.07 0.00 0.00 -0.06 0.03
0.00 0.00 0.00 0.00 0.00 0.00 0.00 0.00 0.00 0.00 0.00 -0.00 -0.00 -0.00 -0.01 -0.00 -0.00 -0.01 0.01 0.04 0.04 0.02 0.01 0.00 0.02 0.02 0.04 0.03 0.01 0.01 0.00 -0.00 -0.00 -0.00 0.05 0.07 0.07 0.04 0.02 0.03 0.03 0.01 -0.02 -0.03 -0.01 -0.01 0.01 0.00 0.00 0.00 0.00 -0.01 -0.07 -0.07 -0.04 -0.06 -0.06 -0.04 -0.02 -0.07 -0.07 -0.03 -0.03 -0.02 -0.02 -0.02 0.01 0.01 0.02 0.02 0.02 0.02 0.03 0.03 0.09 0.21 0.21 0.25 0.25 0.28 0.28 0.23 0.26 0.34 0.35 0.35 0.39 0.21 0.24 0.24 0.24 0.19 0.12 0.12 0.08 0.05 0.05 0.04 0.10 0.09 0.09 -0.08 0.08
0.00 0.00 0.00 0.00 0.00 0.00 0.00 -0.00 0.00 0.00 -0.00 -0.00 -0.00 -0.00 -0.01 -0.01 -0.01 -0.01 0.00 0.02 0.02 0.01 0.00 0.01 0.03 0.03 0.04 0.03 -0.01 -0.01 -0.01 -0.01 0.00 0.00 0.07 0.05 0.05 0.01 -0.03 0.07 0.07 0.09 0.01 -0.02 0.00 0.00 0.02 0.02 0.01 0.01 0.00 -0.03 -0.07 -0.07 -0.08 -0.10 -0.10 -0.12 -0.10 -0.10 -0.10 -0.07 -0.04 -0.04 -0.04 -0.04 -0.01 -0.01 0.01 0.01 0.00 0.03 0.02 0.02 0.03 0.04 0.04 0.26 0.27 0.28 0.28 0.35 0.24 0.30 0.37 0.37 0.38 0.34 0.22 0.22 0.23 0.22 0.18 0.18 0.08 0.04 0.04 0.02 0.04 0.03 0.03 -0.04 0.05
0.00 0.00 0.00 0.00 0.00 0.00 0.00 0.00 0.00 0.00 -0.00 -0.00 -0.00 -0.00 -0.01 -0.02 -0.02 -0.03 -0.01 0.00 0.00 0.00 0.01 0.02 0.02 0.02 0.01 -0.02 -0.04 -0.04 -0.02 -0.00 0.01 0.01 0.05 0.02 0.02 -0.00 -0.01 0.00 0.00 0.08 0.15 0.11 0.19 0.19 0.02 0.02 0.04 0.04 0.02 -0.01 -0.04 -0.04 -0.04 -0.05 -0.05 -0.09 -0.10 -0.09 -0.09 -0.06 -0.05 -0.04 -0.04 -0.04 -0.03 -0.01 -0.01 -0.01 0.00 -0.00 0.01 0.01 0.01 0.03 0.03 0.12 0.33 0.34 0.34 0.36 0.35 0.25 0.32 0.32 0.31 0.31 0.26 0.26 0.19 0.23 0.18 0.18 0.13 0.11 0.11 0.03 0.03 0.05 0.05 0.04 0.05
0.00 0.00 0.00 0.00 0.00 0.00 0.00 0.00 -0.00 -0.00 -0.00 -0.00 -0.01 -0.01 -0.01 -0.03 -0.03 -0.04 -0.03 -0.01 -0.01 0.00 0.01 0.02 0.02 0.02 -0.00 -0.03 -0.04 -0.04 -0.04 0.01 0.05 0.05 0.04 0.02 0.02 0.00 0.01 0.00 0.00 -0.07 0.08 0.24 0.06 0.06 0.06 0.04 0.09 0.09 0.05 0.00 0.00 0.00 -0.03 -0.03 -0.03 -0.05 -0.06 -0.07 -0.07 -0.09 -0.05 -0.05 -0.07 -0.07 -0.04 -0.03 0.01 0.01 0.01 0.00 -0.00 -0.00 0.02 0.03 0.03 0.06 0.18 0.36 0.36 0.35 0.38 0.30 0.20 0.20 0.23 0.35 0.34 0.34 0.26 0.18 0.19 0.19 0.12 0.08 0.08 0.07 0.03 0.03 0.03 0.06 -0.06
0.00 0.00 0.00 0.00 0.00 0.00 0.00 -0.00 -0.00 -0.00 -0.00 -0.00 -0.01 -0.01 -0.02 -0.03 -0.03 -0.04 -0.03 -0.02 -0.02 0.01 0.02 0.02 0.01 0.01 -0.02 -0.04 -0.05 -0.05 -0.02 0.04 0.07 0.07 0.03 0.01 0.01 0.01 0.00 0.00 0.00 -0.01 -0.02 0.00 -0.06 -0.06 -0.06 0.03 0.09 0.09 0.07 0.01 0.00 0.00 -0.00 -0.01 -0.01 -0.03 -0.01 -0.05 -0.05 -0.07 -0.09 -0.08 -0.11 -0.11 -0.09 -0.05 -0.03 -0.03 0.00 -0.00 -0.00 -0.00 -0.01 0.01 0.01 0.04 0.14 0.27 0.27 0.32 0.29 0.26 0.17 0.17 0.10 0.23 0.36 0.36 0.27 0.18 0.13 0.13 0.10 0.07 0.07 0.04 0.05 0.03 0.03 0.04 -0.05
0.00 0.00 0.00 0.00 0.00 0.00 -0.00 -0.00 -0.00 -0.00 -0.00 -0.01 -0.01 -0.01 -0.02 -0.03 -0.03 -0.03 -0.02 -0.02 -0.02 -0.01 0.02 0.01 -0.01 -0.01 -0.02 -0.04 -0.04 -0.04 -0.00 0.03 0.03 0.03 0.02 0.01 0.01 0.02 0.00 0.01 0.01 0.00 -0.01 -0.06 -0.05 -0.05 -0.05 0.03 0.09 0.09 0.03 0.10 0.07 0.07 0.00 -0.00 -0.00 -0.00 -0.00 -0.02 -0.02 -0.04 -0.07 -0.09 -0.10 -0.10 -0.10 -0.08 -0.07 -0.07 -0.08 -0.01 -0.00 -0.00 -0.01 -0.01 -0.01 0.03 0.08 0.19 0.19 0.30 0.29 0.21 0.16 0.16 0.11 0.10 0.28 0.28 0.25 0.23 0.14 0.14 0.09 0.06 0.06 0.03 0.03 0.02 0.02 0.01 -0.01
0.00 0.00 0.00 0.00 0.00 0.00 -0.00 -0.00 -0.00 -0.00 -0.00 -0.01 -0.02 -0.02 -0.02 -0.03 -0.03 -0.02 -0.02 -0.02 -0.02 -0.01 0.01 -0.00 -0.02 -0.02 -0.02 -0.02 -0.01 -0.01 0.03 0.04 -0.00 -0.00 -0.01 0.01 0.01 0.01 0.01 0.01 0.01 0.01 0.00 -0.03 0.02 0.02 0.05 0.08 0.03 0.03 0.04 -0.01 0.02 0.02 0.02 0.00 0.00 -0.00 -0.00 -0.00 -0.00 -0.02 -0.04 -0.06 -0.04 -0.04 -0.08 -0.08 -0.07 -0.07 -0.07 -0.08 0.00 0.00 -0.01 -0.01 -0.01 0.00 0.04 0.15 0.15 0.22 0.27 0.21 0.14 0.14 0.12 0.10 0.13 0.13 0.14 0.23 0.17 0.17 0.12 0.07 0.07 0.07 0.02 0.02 0.02 0.01 0.02